Location: Grasslands National Park East Block
(49.0708°N, 106.5295°W)
Time: 08:38:30
(UTC-06:00)

Max Valier Satellite - Visible Passes

Search period start: 22 September 2019 00:00
Search period end: 02 October 2019 00:00
Orbit: 492 x 507 km, 97.3° (Epoch: 21 September)

Date Brightness Start Highest point End Pass type
(mag) Time Alt. Az. Time Alt. Az. Time Alt. Az.
22 Sep ? 20:44:05 17° NE 20:44:05 17° NE 20:45:55 10° NNE visible
22 Sep ? 22:18:45 24° NW 22:18:45 24° NW 22:20:28 10° NNW visible
23 Sep ? 20:24:11 11° NE 20:24:11 11° NE 20:25:02 10° NE visible
23 Sep ? 21:58:51 28° NNW 21:58:51 28° NNW 22:00:44 10° NNW visible
24 Sep ? 21:38:57 28° N 21:38:57 28° N 21:40:52 10° N visible
25 Sep ? 21:19:04 24° NNE 21:19:04 24° NNE 21:20:52 10° N visible
25 Sep ? 22:53:44 12° NW 22:53:44 12° NW 22:54:04 10° NW visible
26 Sep ? 20:59:09 18° NNE 20:59:09 18° NNE 21:00:42 10° NNE visible
26 Sep ? 22:33:50 15° NW 22:33:50 15° NW 22:34:41 10° NNW visible
27 Sep ? 20:39:15 14° NE 20:39:15 14° NE 20:40:16 10° NNE visible
27 Sep ? 22:13:55 19° NNW 22:13:55 19° NNW 22:15:03 10° NNW visible
28 Sep ? 21:54:01 20° NNW 21:54:01 20° NNW 21:55:17 10° NNW visible
29 Sep ? 21:34:07 20° N 21:34:07 20° N 21:35:22 10° N visible
30 Sep ? 21:14:13 17° NNE 21:14:13 17° NNE 21:15:19 10° N visible
01 Oct ? 20:54:18 14° NNE 20:54:18 14° NNE 20:55:05 10° NNE visible
01 Oct ? 22:28:58 12° NNW 22:28:58 12° NNW 22:29:16 10° NNW visible
